STARLINK-34428 (64293 NORAD) Tracking and Keplerian Element Data

This shows tracking and keplerian element data for the satellite.

Feedback or suggestion? Click here.




ElementValue
Catalog64293
NameSTARLINK-34428
Epoch Orbit3092
Epoch Day354.12656542
Epoch Year2025
RAAN34.9439
Inclination70.0023
Eccentricity0.0003179
Argument of Perigee260.2071
Mean Anonmoly99.8729
Mean Motion14.983235
Decay Rate5.15E-06
L11 64293U 25123C 25354.12656542 .00000515 00000+0 50940-4 0 9999
L22 64293 70.0023 34.9439 0003179 260.2071 99.8729 14.98323500 30921



Live tracking and technical data element details for STARLINK-34428 (NORAD 64293). STARLINK-34428 can be tracked NOW for your location showing map with azimuth and elevation plus other details from your city location.







IsCatalogInMostPopularTable: catalog: 64293, numindb: 14
Update: records affected: 1



GetName: 64293 STARLINK-34428

Hit Count: updated at: Thu, 21 May 2026 11:49:44 GMT